Regional Weather Roundup
Issued by NWS

Home | Current Version | Previous Version | Graphics & Text | Print | Product List | Glossary On
Versions: 1 2 3 4 5 6 7 8 9 10 11 12 13 14 15 16 17 18 19 20 21 22 23 24 25 26 27 28 29 30 31 32 33 34 35 36 37 38 39 40 41 42 43 44 45 46 47 48 49 50
000
ASUS43 KOAX 261002
RWRNE

WEATHER ROUNDUP FOR NEBRASKA
NATIONAL WEATHER SERVICE OMAHA NE
500 AM CDT TUE MAY 26 2015

NOTES: SATELLITE DATA IS BEING USED TO AUGMENT CLOUD COVER ABOVE
       12000 FEET.
       "FAIR" INDICATES FEW OR NO CLOUDS BELOW 12,000 FEET WITH NO
       SIGNIFICANT WEATHER AND/OR OBSTRUCTIONS TO VISIBILITY.

  * THESE STATIONS DO NOT REPORT WEATHER SUCH AS RAIN...SNOW OR FOG.

NEZ001>004-019>022-054>056-261100-
NEBRASKA PANHANDLE

CITY           SKY/WX    TMP DP  RH WIND       PRES   REMARKS
SCOTTSBLUFF    CLOUDY    47  46  97 W5        29.97R
ALLIANCE       CLOUDY    51  50  96 W5        29.95R
CHADRON        CLOUDY    54  53  97 N5        29.95R
SIDNEY         PTCLDY    43  42  97 NW7       29.97S
$$

NEZ057>060-069>072-079>082-261100-
SOUTHWEST NEBRASKA

CITY           SKY/WX    TMP DP  RH WIND       PRES   REMARKS
NORTH PLATTE   CLOUDY    52  51  97 W8        29.89S
IMPERIAL       MOCLDY    51  48  89 NW6       29.92S
LEXINGTON      PTCLDY    55  54  95 NW7       29.84S
MCCOOK         CLOUDY    52  50  93 NW8       29.88S
$$

NEZ005>010-023>029-035>040-094-261100-
NORTH CENTRAL NEBRASKA

CITY           SKY/WX    TMP DP  RH WIND       PRES   REMARKS
VALENTINE      CLOUDY    52  48  86 N7        29.91S
AINSWORTH      CLOUDY    51  50  97 NW8       29.90S
BROKEN BOW     CLOUDY    58  54  86 N16       29.84R
ORD            CLOUDY    58  55  90 N8        29.81R
$$

NEZ041-046>049-061>064-073>077-083>087-261100-
SOUTH CENTRAL NEBRASKA

CITY           SKY/WX    TMP DP  RH WIND       PRES   REMARKS
GRAND ISLAND   CLOUDY    58  55  90 N10       29.77S
AURORA         CLOUDY    57  57 100 N12       29.77S
HASTINGS       CLOUDY    58  56  93 NW13      29.77R
KEARNEY *      CLOUDY    59  55  88 NW12      29.81S
$$

NEZ011>018-030>034-042>045-261100-
NORTHEAST NEBRASKA

CITY           SKY/WX    TMP DP  RH WIND       PRES   REMARKS
NORFOLK        CLOUDY    57  55  93 W5        29.78R
ALBION         HVY RAIN  57  55  92 N9        29.79F
BLAIR          CLOUDY    61  56  84 S13       29.77F
COLUMBUS *     CLOUDY   N/A N/A N/A MISG        N/A
FREMONT        CLOUDY    61  59  92 E3        29.78S
TEKAMAH        CLOUDY    62  60  93 SE8       29.77S
$$

NEZ050>053-065>068-078-088>093-261100-
SOUTHEAST NEBRASKA

CITY           SKY/WX    TMP DP  RH WIND       PRES   REMARKS
LINCOLN        CLOUDY    62  57  83 SE12      29.76F
OMAHA EPPLEY   LGT RAIN  62  59  90 S12       29.77F
BEATRICE       CLOUDY    59  57  92 S9        29.75F
FALLS CITY     LGT RAIN  60  59  96 W8        29.75F
NEBRASKA CITY  DRIZZLE   60  60 100 S7        29.76F
$$

NEZ044-045-051>053-067-261100-
OMAHA AREA

CITY           SKY/WX    TMP DP  RH WIND       PRES   REMARKS
OMAHA EPPLEY   LGT RAIN  62  59  90 S12       29.77F
BLAIR          CLOUDY    61  56  84 S13       29.77F
FREMONT        CLOUDY    61  59  92 E3        29.78S
OFFUTT AFB     CLOUDY    61  59  93 SE6       29.75F
WAHOO          CLOUDY    60  58  91 SE5       29.76F
$$


USA.gov is the U.S. government's official web portal to all federal, state and local government web resources and services.